Weather Roundup
Issued by NWS Chicago, IL

Home | Current Version | Previous Version | Text Only | Print | Product List | Glossary Off
Versions: 1 2 3 4 5 6 7 8 9 10 11 12 13 14 15 16 17 18 19 20 21 22 23 24 25 26 27 28 29 30 31 32 33 34 35 36 37 38 39 40 41 42 43 44 45 46 47 48 49 50

000
NZUS59 KLOT 312102
HRRLOT

CHICAGO AREA WEATHER ROUNDUP
NATIONAL WEATHER SERVICE CHICAGO/ROMEOVILLE IL
400 PM CDT FRI JUL 31 2015

NOTE: "FAIR" INDICATES FEW OR NO CLOUDS BELOW 12,000 FEET WITH NO
SIGNIFICANT WEATHER AND/OR OBSTRUCTIONS TO VISIBILITY.

* THESE STATIONS ARE NOT UNDER NWS QUALITY CONTROL. THEY ALSO MAY NOT
  REPORT WEATHER SUCH AS PRECIPITATION OR FOG.

ILZ005-006-012>014-019>023-312200-
NORTHEAST ILLINOIS

CITY           SKY/WX    TMP DP  RH WIND       PRES   REMARKS
OHARE          MOSUNNY   86  50  28 NW17G29   29.93F HX  84
MIDWAY         MOSUNNY   89  48  24 NW18G30   29.94S HX  86
AURORA         SUNNY     84  55  36 NW14G24   29.97F HX  83
WAUKEGAN       SUNNY     82  47  29 NW14G26   29.93F HX  80
DUPAGE AIRPORT SUNNY     84  50  30 NW16G26   29.95F HX  82
WHEELING       SUNNY     86  46  24 NW21G36   29.95S HX  83
NORTHERLY IS     N/A     85  48  27 W15         N/A  HX  82
$$

WIZ051-052-058>065-066-070>072-312200-
SOUTHEAST WISCONSIN

CITY           SKY/WX    TMP DP  RH WIND       PRES   REMARKS
MILWAUKEE      MOSUNNY   83  47  28 NW22G29   29.93F HX  81
KENOSHA*       SUNNY     82  48  30 NW21G31   29.94F HX  81
RACINE*        MOSUNNY   83  48  29 NW14G25   29.94F HX  81
WAUKESHA       MOSUNNY   81  48  32 W17G25    29.95F HX  80
$$

INZ001>003-010>013-019-020-312200-
NORTHWEST INDIANA

CITY           SKY/WX    TMP DP  RH WIND       PRES   REMARKS
GARY*          MOSUNNY   88  52  29 W18G39    29.94F HX  85
MICHIGAN CITY* NOT AVBL
RENSSELAER*    NOT AVBL
$$

LMZ740>746-312200-
SOUTHERN LAKE MICHIGAN

STATION/POSITION TIME  SKY/WX   TEMP WIND        PRES    VSBY
                                AIR  DIR/SP/G
                 (UTC)          (F)  (DEG/KT/KT) (MB)    (MI)
HARRISON CRIB    2000            82  290/ 20/ 26   N/A
BURNHAM HARBOR   2000            85  280/ 15/ 21   N/A
CALUMET HARBOR   2000            87  270/  9/ 15   N/A
BURNS HARBOR     2000            80   10/  1/  4 1014.6F
MICHIGAN CITY    2000            79  250/  5/  6   N/A
$$

ABBREVIATIONS USED IN REMARKS
   TC - TEMPERATURE IN CELSIUS
  WCI - WIND CHILL INDEX
   HX - HEAT INDEX
  VSB - VISIBILITY
$$


USA.gov is the U.S. government's official web portal to all federal, state and local government web resources and services.